Regional Weather Roundup
Issued by NWS

Home | Current Version | Previous Version | Graphics & Text | Print | Product List | Glossary On
Versions: 1 2 3 4 5 6 7 8 9 10 11 12 13 14 15 16 17 18 19 20 21 22 23 24 25 26 27 28 29 30 31 32 33 34 35 36 37 38 39 40 41 42 43 44 45 46 47 48 49 50
000
ASUS43 KLOT 101010
RWRIL

ILLINOIS REGIONAL WEATHER ROUNDUP
NATIONAL WEATHER SERVICE CHICAGO/ROMEOVILLE IL
500 AM CDT THU JUL 10 2014

NOTE: "FAIR" INDICATES FEW OR NO CLOUDS BELOW 12,000 FEET WITH NO
SIGNIFICANT WEATHER AND/OR OBSTRUCTIONS TO VISIBILITY.

* THESE STATIONS ARE NOT UNDER NWS QUALITY CONTROL. THEY ALSO MAY NOT
  REPORT WEATHER SUCH AS PRECIPITATION OR FOG.

ILZ001-002-007-009-015-016-024-101100-
NORTHWEST ILLINOIS

CITY           SKY/WX    TMP DP  RH WIND       PRES   REMARKS
MOLINE         CLEAR     58  54  86 E7        30.08S
STERLING*      CLOUDY    59  54  82 E3        30.11R
SAVANNA*       CLOUDY    59  56  89 E6        30.10R
$$

ILZ003-004-008-010-011-017-018-101100-
NORTH CENTRAL ILLINOIS

CITY           SKY/WX    TMP DP  RH WIND       PRES   REMARKS
ROCKFORD       PTCLDY    57  52  83 E3        30.12S
FREEPORT*      CLEAR     51  49  93 CALM      30.13R
ROCHELLE*      CLEAR     53  50  91 CALM      30.12R
DE KALB*       CLEAR     54  52  90 E3        30.13R
PERU*          CLEAR     58  54  88 E3        30.11R
$$

ILZ005-006-012>014-019>023-101100-
NORTHEAST ILLINOIS

CITY           SKY/WX    TMP DP  RH WIND       PRES   REMARKS
CHICAGO-OHARE  PTCLDY    60  55  83 CALM      30.10S
CHICAGO-MIDWAY PTCLDY    64  59  83 CALM      30.10S
AURORA         CLEAR     54  51  90 CALM      30.12R
LANSING*       CLEAR     57  56  94 CALM      30.11S
JOLIET*        CLEAR     54  52  95 CALM      30.12R
WAUKEGAN       PTCLDY    54  52  93 CALM      30.11R
DUPAGE AIRPORT CLEAR     56  53  90 CALM      30.11R
KANKAKEE*      CLEAR     56  55  99 CALM      30.12R FOG
WHEELING       CLEAR     59  55  87 CALM      30.12R
MORRIS*        CLEAR     57  56  94 CALM      30.11R
ROMEOVILLE*    CLEAR     58  57  97 CALM      30.11R
NORTHERLY ISL    N/A     61  59  93 CALM        N/A
$$

LMZ740>746-101100-
SOUTHERN LAKE MICHIGAN

STATION/POSITION SKY/WX   TEMP    WIND        PRES    VSBY  WAVE
                          AIR SEA DIR/SP/G                  HT/PER
                          (F)     (DEG/KT/KT) (MB)    (MI)  (FT/S)
SOUTHERN BUOY              57 56   20/  4/  6 1020.2R         0
WAUKEGAN HARBOR            58      20/  2/  2 1020.7S
HARRISON CRIB              65        CALM       N/A
BURNHAM HARBOR             61      CALM  /  1   N/A
CALUMET HARBOR             62        CALM     1020.1R
MICHIGAN CITY              61     100/  4/  4   N/A
$$

ILZ025>027-034>036-040-047-049-050-058-095>099-101100-
WEST-CENTRAL ILLINOIS

CITY           SKY/WX    TMP DP  RH WIND       PRES   REMARKS
QUINCY         CLEAR     64  55  72 CALM      30.08S
GALESBURG*     CLEAR     56  56  99 CALM      30.09S
MACOMB*        CLEAR     55  54  98 CALM      30.10F
JACKSONVILLE*  PTCLDY    58  56  94 CALM      30.09F
PITTSFIELD*    PTCLDY    58  56  92 CALM      30.09S
$$

ILZ028>032-037-038-041>044-048-051>054-059>061-101100-
CENTRAL ILLINOIS

CITY           SKY/WX    TMP DP  RH WIND       PRES   REMARKS
PONTIAC        CLEAR     54  54 100 CALM      30.11R
BLOOMINGTON    CLEAR     58  54  86 E5        30.12R
DECATUR        CLEAR     57  54  89 CALM      30.09S
PEORIA         CLEAR     61  57  87 CALM      30.09S
LACON*         CLEAR     55  53  94 CALM      30.09R
LINCOLN*       FOG       58  57  95 CALM      30.07S VSB 3/4
SPRINGFIELD    CLEAR     57  55  93 CALM      30.09S
TAYLORVILLE    CLEAR     54  54 100 CALM      30.09R
$$

ILZ033-039-045-046-055>057-062-063-101100-
EAST-CENTRAL ILLINOIS

CITY           SKY/WX    TMP DP  RH WIND       PRES   REMARKS
CHAMPAIGN      CLEAR     60  56  86 NE7       30.10R
RANTOUL*       CLEAR     61  54  77 CALM      30.11S
MATTOON        CLEAR     56  53  90 N5        30.08R
PARIS*         CLEAR     56  55  97 N3        30.10R
$$

ILZ079-100>102-101100-
SOUTHWEST ILLINOIS

CITY           SKY/WX    TMP DP  RH WIND       PRES   REMARKS
ALTON          MOCLDY    61  61 100 CALM      30.07F
BELLEVILLE     CLEAR     60  60  99 N3        30.06S
CAHOKIA*       PTCLDY    59  58  96 CALM      30.06F FOG
SPARTA*        CLEAR     61  59  94 CALM      30.07S
$$

ILZ064>066-069>071-074>076-080>082-084>086-088>090-092>094-101100-
SOUTH-CENTRAL ILLINOIS

CITY           SKY/WX    TMP DP  RH WIND       PRES   REMARKS
CARBONDALE     CLEAR     64  61  90 N5        30.06S
CAIRO*         PTCLDY    70  63  77 NE3       30.04S
MARION         PTCLDY    64  63  94 N3        30.06S
MT. VERNON     PTCLDY    61  55  82 CALM      30.08R
CENTRALIA*     PTCLDY    58  56  94 CALM      30.07S FOG
SALEM*         MOCLDY    63  61  94 CALM      30.08S
METROPOLIS*    CLOUDY    68  63  84 CALM      30.04S
$$

ILZ067-068-072-073-078-083-087-091-101100-
SOUTHEAST ILLINOIS

CITY           SKY/WX    TMP DP  RH WIND       PRES   REMARKS
FLORA*         MOCLDY    60  58  92 CALM      30.07S
HARRISBURG*    PTCLDY    64  62  93 CALM      30.07R
ROBINSON*      MOCLDY    60  59  97 CALM      30.08R
CARMI*         CLEAR     63  63  98 CALM      30.05S
$$

ABBREVIATIONS USED IN REMARKS
   TC - TEMPERATURE IN CELSIUS
  WCI - WIND CHILL INDEX
   HX - HEAT INDEX
  VSB - VISIBILITY
$$



USA.gov is the U.S. government's official web portal to all federal, state and local government web resources and services.